This is the latest recevied weather packets stored in our database for station/object EA3ABN-15. If no packets are shown the sender has not sent any weather packets the latest 10 day(s).
| Time | Temp. | Humidity | Pressure | Rain* | Wind** | Luminosity | Snow |
|---|---|---|---|---|---|---|---|
| 1777413108 | 17.22° C | 52% | 1053.8 hPa | - | - | - | - |
| 1777412208 | 17.22° C | 52% | 1053.3 hPa | - | - | - | - |
| 1777411308 | 17.22° C | 52% | 1053.2 hPa | - | - | - | - |
| 1777410410 | 17.22° C | 51% | 1053.2 hPa | - | - | - | - |
| 1777409510 | 17.78° C | 52% | 1053 hPa | - | - | - | - |
| 1777408610 | 17.78° C | 52% | 1052.9 hPa | - | - | - | - |
| 1777407710 | 17.78° C | 52% | 1052.9 hPa | - | - | - | - |
| 1777406810 | 17.78° C | 52% | 1052.8 hPa | - | - | - | - |
| 1777405910 | 17.78° C | 52% | 1052.6 hPa | - | - | - | - |
| 1777405010 | 17.78° C | 53% | 1052.5 hPa | - | - | - | - |
| 1777404110 | 17.22° C | 53% | 1052.1 hPa | - | - | - | - |
| 1777403210 | 17.22° C | 55% | 1052.2 hPa | - | - | - | - |
| 1777402310 | 17.22° C | 54% | 1052.1 hPa | - | - | - | - |
| 1777401410 | 17.78° C | 53% | 1052.2 hPa | - | - | - | - |
| 1777400510 | 17.78° C | 52% | 1052.3 hPa | - | - | - | - |
| 1777399609 | 18.33° C | 50% | 1052.4 hPa | - | - | - | - |
| 1777398709 | 18.89° C | 48% | 1052.4 hPa | - | - | - | - |
| 1777397808 | 19.44° C | 46% | 1052.5 hPa | - | - | - | - |
| 1777396908 | 19.44° C | 45% | 1052.7 hPa | - | - | - | - |
| 1777396008 | 19.44° C | 45% | 1052.7 hPa | - | - | - | - |
| 1777395108 | 20° C | 44% | 1052.7 hPa | - | - | - | - |
| 1777394208 | 20° C | 44% | 1052.5 hPa | - | - | - | - |
| 1777393308 | 20° C | 43% | 1052.6 hPa | - | - | - | - |
| 1777392408 | 20.56° C | 43% | 1052.4 hPa | - | - | - | - |
| 1777391508 | 20.56° C | 43% | 1052.5 hPa | - | - | - | - |
* Rain since midnight (hover to see other rain measurements)
** Current wind speed in m/s (hover to see current wind gust speed)